Weather Service Report


050 
ASCA42 TJSJ 301610
RWRPR 
PUERTO RICO/U.S. VIRGIN ISLANDS HOURLY WEATHER ROUNDUP
NATIONAL WEATHER SERVICE SAN JUAN PR
1200 PM AST MON MAY 30 2016

PRZ001-004-301700-
PUERTO RICO
  
CITY           SKY/WX    TMP DP  RH WIND       PRES   REMARKS
SAN JUAN LMM   LGT RAIN  81  73  78 NE5       30.00F                  
AGUADILLA      PTSUNNY   75  72  88 W7        30.02R                  
CEIBA          PTSUNNY   84  77  79 E9        30.02S HX  94           
$$

PRZ006-007-301700-
U.S. VIRGIN ISLANDS
  
CITY           SKY/WX    TMP DP  RH WIND       PRES   REMARKS
CHARLOTTE AMA  SUNNY     88  75  66 SE15      29.99S HX  97           
CHRISTIANSTED  MOSUNNY   86  75  70 E15       29.99F HX  95           
$$

HOURLY WEATHER ROUNDUP FOR THE NEWS MEDIA
  
CITY           SKY/WX    TMP DP  RH WIND       PRES   REMARKS
ORLANDO        MOSUNNY   87  71  58 W3        30.01F HX  93           
NEW YORK       CLOUDY    75  70  84 SW10      29.99F                  
NEWARK         PTSUNNY   81  68  64 W7        29.96F                  
CHICAGO        MOSUNNY   79  60  52 SW10      30.03S                  
HARTFORD       CLOUDY    68  67  96 SW10      29.98F FOG              
BOSTON         RAIN      56  55  97 SE5       29.99F FOG              
DALLAS         CLOUDY    75  65  70 CALM      30.02R                  
PHILADELPHIA   CLOUDY    77  68  73 S6        29.99F                  
LOS ANGELES    CLOUDY    63  54  72 CALM      30.02R                  
WASHINGTON DC  PTSUNNY   79  63  57 W5        30.01S                  

Return to Home page


Western Regional Climate Center, wrcc@dri.edu